Погода в Малой Буромке

Украина / Черкасская область     49°38′55″N   32°36′06″E
темп.,
°C
ветер,
м/с
пор.,
м/с
влажн.,
%
обл.,
%
осадки,
мм/ч
давл.,
гПа
погр.,
м
27 февраля, сб
сб2723:00+2з369956 0.0 1018102
02:00+3зсз389777 0.0 1018167
05:00+3зсз41099100 0.4 1016223
08:00+2зсз51298100 1.0 1017395
11:00+3зсз51092100 0.0 1017543
14:00+4сз61087100 0.0 1018761
17:00+2сз4997100 0.1 1018367
20:00+2сз4898100 0.3 1019275
28 февраля, вс
вс2823:00+1сз4898100 0.7 1019283
02:00+1ссз51097100 1.0 1020495
05:00+1ссз4898100 0.1 1021422
08:000ссз5994100 0.3 1022556
11:00+2ссз588395 0.1 1022844
14:00+2сз588097 0.3 1022866
17:00+1сз4888100 0.1 1021556
20:000зсз3694100 0.1 1022176
1 марта, пн
пн123:00−1сз239387 0.0 102253
02:00−1ссз239544 0.0 102461
05:00−1ссз129771 0.0 102533
08:000ссз369364 0.0 1027279
11:00+2ссз348588 0.1 1028480
14:00+3ссз357793 0.3 1029695
17:00+1ссз348590 0.1 102999
20:00+1зсз239293 0.1 103178
2 марта, вт
вт223:000з369699 0.0 1030185
02:00−1зюз489579 0.0 1029188
05:00+1зюз5108985 0.0 1027309
08:00+2з6139192 0.0 1025487
11:00+4сз71184100 0.0 1024843
14:00+5сз7108198 0.0 1024683
17:00+4сз5128633 0.0 1023550
20:00+3сз5138817 0.0 1025361
3 марта, ср
ср323:00+2сз512900 0.0 1025358
02:00+2сз512930 0.0 1025311
05:00+1сз499521 0.0 1025238
08:00+1сз469341 0.0 1026245
11:00+6сз467655 0.0 1026622
14:00+7сз566843 0.0 10251061
17:00+6сз367186 0.0 1025769
20:00+5ссз257693 0.0 1026176